This is the latest recevied weather packets stored in our database for station/object OE6PLD-13. If no packets are shown the sender has not sent any weather packets the latest 10 day(s).
| Time | Temp. | Humidity | Pressure | Rain* | Wind** | Luminosity | Snow |
|---|---|---|---|---|---|---|---|
| 1777632562 | 17.78° C | 39% | 1013.6 hPa | 0.76 mm | - | 556 W/m² | - |
| 1777632379 | 18.33° C | 39% | 1013.8 hPa | 0.76 mm | - | 327 W/m² | - |
| 1777632195 | 17.78° C | 40% | 1013.2 hPa | 0.76 mm | - | 640 W/m² | - |
| 1777632012 | 17.22° C | 39% | 1013.6 hPa | 0.76 mm | - | 636 W/m² | - |
| 1777631829 | 17.22° C | 40% | 1013.7 hPa | 0.76 mm | - | 144 W/m² | - |
| 1777631645 | 16.67° C | 41% | 1013.7 hPa | 0.76 mm | - | 608 W/m² | - |
| 1777631462 | 16.67° C | 42% | 1013.6 hPa | 0.76 mm | - | 621 W/m² | - |
| 1777631278 | 16.67° C | 41% | 1013.7 hPa | 0.76 mm | - | 628 W/m² | - |
| 1777631095 | 17.22° C | 41% | 1013.8 hPa | 0.76 mm | - | 90 W/m² | - |
| 1777630912 | 17.78° C | 40% | 1013.8 hPa | 0.76 mm | - | 675 W/m² | - |
| 1777630729 | 17.78° C | 40% | 1013.6 hPa | 0.76 mm | - | 674 W/m² | - |
| 1777630545 | 17.78° C | 40% | 1013.6 hPa | 0.76 mm | - | 658 W/m² | - |
| 1777630362 | 17.78° C | 39% | 1013.7 hPa | 0.76 mm | - | 663 W/m² | - |
| 1777630178 | 17.78° C | 39% | 1013.8 hPa | 0.76 mm | - | 685 W/m² | - |
| 1777629995 | 17.78° C | 39% | 1013.9 hPa | 0.76 mm | - | 684 W/m² | - |
| 1777629812 | 17.22° C | 42% | 1013.8 hPa | 0.76 mm | - | 702 W/m² | - |
| 1777629628 | 17.78° C | 39% | 1014.1 hPa | 0.76 mm | - | 702 W/m² | - |
| 1777629445 | 17.78° C | 40% | 1013.8 hPa | 0.76 mm | - | 701 W/m² | - |
| 1777629262 | 17.22° C | 39% | 1013.8 hPa | 0.76 mm | - | 692 W/m² | - |
| 1777629078 | 16.67° C | 41% | 1013.9 hPa | 0.76 mm | - | 681 W/m² | - |
| 1777628895 | 16.67° C | 40% | 1013.8 hPa | 0.76 mm | - | 699 W/m² | - |
| 1777628711 | 16.67° C | 40% | 1014.1 hPa | 0.76 mm | - | 704 W/m² | - |
| 1777628528 | 16.67° C | 40% | 1014.1 hPa | 0.76 mm | - | 671 W/m² | - |
| 1777628345 | 17.22° C | 40% | 1014.1 hPa | 0.76 mm | - | 693 W/m² | - |
| 1777628161 | 16.67° C | 41% | 1013.9 hPa | 0.76 mm | - | 679 W/m² | - |
* Rain latest hour (hover to see other rain measurements)
** Current wind speed in m/s (hover to see current wind gust speed)